[[{"header":{"parameterUnit":"m.s-1","parameterCategory":1,"la1":30.2991,"la2":30.254,"lo1":-89.0895,"lo2":-89.0444,"dy":0.0017,"dx":0.0017,"nx":28,"ny":28,"refTime":"2024-04-17T03:00:00:Z","depth":0,"parameterNumber":2,"parameterNumberName":"U-component_of_WINDS"},"data":[0,0,0,0,0,0,0,0,0,0,0,0,0,0,0,0,0,0,0,0,0,0,0,0,0,0,0,0,0,0,0,0,0,0,0,0,0,0,0,0,0,0,0,0,0,0,0,0,0,0,0,0,0,0,0,0,0,0,-4.3931,-4.3931,0,-4.3999,-4.4,-4.4001,-4.398,-4.3978,-4.3977,-4.3976,-4.4045,-4.4048,-4.4052,0,0,0,0,0,0,0,0,0,0,0,0,0,-4.3783,-4.3785,-4.3931,-4.3932,-4.3932,-4.3999,-4.4,-4.4001,-4.398,-4.3978,-4.3977,-4.3975,-4.4044,-4.4048,-4.4052,0,0,0,0,0,0,0,0,0,0,0,0,0,-4.3849,-4.3786,-4.393,-4.393,-4.3931,-4.3999,-4.4,-4.4001,-4.3981,-4.3978,-4.3976,-4.3974,-4.4043,-4.4048,-4.4052,-4.4125,0,0,-4.4067,-4.4069,0,0,0,0,0,0,0,0,-4.3845,-4.3854,-4.3929,-4.393,-4.3931,-4.3979,-4.3973,-4.4043,-4.3981,-4.3962,-4.3976,-4.3973,-4.4025,-4.4031,-4.4049,-4.4128,-4.4131,-4.4067,-4.407,-4.4072,-4.4074,0,0,0,0,0,0,0,-4.384,-4.3851,-4.3958,-4.393,-4.3931,-4.3927,-4.3934,-4.3986,-4.4004,-4.3963,-4.3962,-4.397,-4.4025,-4.4044,-4.405,-4.4132,-4.4067,-4.4072,-4.4075,-4.4076,-4.4276,-4.4279,0,0,0,0,0,0,-4.3835,-4.3847,-4.3956,-4.396,-4.3882,-4.3931,-4.3939,-4.3966,-4.4004,-4.4008,-4.3972,-4.3969,-4.4037,-4.4045,-4.4052,-4.414,-4.4072,-4.4077,-4.408,-4.4274,-4.4277,-4.428,0,0,0,0,0,0,-4.3832,-4.3845,-4.3953,-4.3903,-4.3917,-4.3936,-4.3966,-4.3968,-4.3987,-4.4011,-4.4014,-4.3988,-4.4036,-4.4046,-4.4108,-4.4142,-4.4079,-4.4083,-4.4271,-4.4275,-4.4278,-4.4316,0,0,0,0,0,0,-4.3828,-4.3844,-4.3871,-4.3904,-4.3919,-4.4006,-4.3968,-4.3971,-4.3996,-4.3992,-4.4026,-4.403,-4.4035,-4.41,-4.4112,-4.4148,-4.4087,-4.4268,-4.4273,-4.4277,-4.4312,-4.432,-4.4328,0,0,0,0,0,-4.3823,-4.3879,-4.3873,-4.3886,-4.3954,-4.4008,-4.4017,-4.4021,-4.3998,-4.4026,-4.4042,-4.4029,-4.4137,-4.4107,-4.412,-4.4157,-4.4266,-4.4271,-4.4277,-4.4308,-4.4319,-4.4328,0,0,0,0,0,0,-4.3849,-4.3883,-4.3877,-4.3945,-4.3974,-4.4005,-4.404,-4.4033,-4.4068,-4.4064,-4.4068,-4.4076,-4.4139,-4.4155,-4.412,-4.4231,-4.4198,-4.4206,-4.4217,-4.4228,-4.4236,-4.423,-4.4091,0,0,0,0,0,-4.3863,-4.3904,-4.3932,-4.399,-4.4005,-4.402,-4.4044,-4.4045,-4.4075,-4.4087,-4.4107,-4.4136,-4.4177,-4.4204,-4.4242,-4.4315,-4.4322,-4.4347,-4.4355,-4.4362,-4.4368,-4.4408,-4.442,-4.4298,-4.4298,-4.4297,0,0,-4.3892,-4.3915,-4.3941,-4.3996,-4.4018,-4.4061,-4.403,-4.4077,-4.4108,-4.4094,-4.4153,-4.4169,-4.4203,-4.427,-4.4301,-4.4285,-4.4404,-4.4369,-4.4374,-4.4377,-4.4415,-4.4427,-4.4437,-4.4301,-4.4301,-4.43,0,0,-4.3965,-4.3988,-4.4039,-4.4062,-4.4097,-4.4108,-4.412,-4.4153,-4.4163,-4.4223,-4.4213,-4.4251,-4.4321,-4.4346,-4.4367,-4.4454,-4.4443,-4.4466,-4.4508,-4.4547,-4.4556,-4.4565,-4.4595,-4.4606,-4.4473,-4.4473,-4.4473,0,-4.3996,-4.406,-4.4066,-4.4113,-4.4138,-4.4128,-4.418,-4.4202,-4.4248,-4.4265,-4.4248,-4.4336,-4.4358,-4.4431,-4.4453,-4.4471,-4.4485,-4.4461,-4.4555,-4.4563,-4.4571,-4.46,-4.4611,-4.4476,-4.4476,-4.4475,-4.4475,0,-4.4097,-4.4142,-4.4179,-4.4224,-4.4253,-4.4302,-4.4315,-4.4344,-4.4344,-4.4356,-4.4418,-4.4444,-4.4488,-4.4506,-4.4506,-4.458,-4.4569,-4.4554,-4.452,-4.4585,-4.4612,-4.4624,-4.4479,-4.4479,-4.4478,-4.4477,0,0,-4.4186,-4.4235,-4.4249,-4.4269,-4.4309,-4.4343,-4.4393,-4.4437,-4.4461,-4.4495,-4.4536,-4.4597,-4.4583,-4.4607,-4.461,-4.4645,-4.4711,-4.4625,-4.4625,-4.4639,-4.4794,-4.4804,-4.4817,-4.4706,-4.4708,-4.4709,-4.4791,0,-4.4263,-4.435,-4.4357,-4.4435,-4.4477,-4.447,-4.4513,-4.4542,-4.4556,-4.4593,-4.4609,-4.4651,-4.463,-4.4645,-4.4679,-4.4696,-4.4742,-4.469,-4.4743,-4.4745,-4.4733,-4.4831,-4.4842,-4.4918,-4.4802,-4.4803,-4.4805,0,-4.4363,-4.4399,-4.4482,-4.4516,-4.4534,-4.4572,-4.4614,-4.465,-4.4684,-4.4691,-4.472,-4.4719,-4.477,-4.4738,-4.4809,-4.4774,-4.4797,-4.4809,-4.4812,-4.4815,-4.4777,-4.4836,-4.4942,-4.4953,-4.4822,-4.482,-4.4819,0,-4.4419,-4.4489,-4.4547,-4.4565,-4.4607,-4.4634,-4.4653,-4.4685,-4.4711,-4.4748,-4.4765,-4.4807,-4.483,-4.4863,-4.4873,-4.4849,-4.4944,-4.4912,-4.4952,-4.4951,-4.497,-4.4968,-4.5079,-4.4988,-4.4988,-4.4987,-4.4987,0,-4.4502,-4.4553,-4.4573,-4.4608,-4.4665,-4.4674,-4.473,-4.4748,-4.4776,-4.4815,-4.4813,-4.485,-4.4862,-4.4901,-4.491,-4.4968,-4.4979,-4.4986,-4.4987,-4.4985,-4.4984,-4.4999,-4.4993,-4.499,-4.499,-4.4989,-4.4989,0,-4.4573,-4.4589,-4.4652,-4.4687,-4.4697,-4.4737,-4.4768,-4.4803,-4.4817,-4.4867,-4.4879,-4.4901,-4.4948,-4.4962,-4.5018,-4.5024,-4.5091,-4.5089,-4.5079,-4.5079,-4.5117,-4.5113,-4.524,-4.5257,-4.5156,-4.5157,-4.5157,0,-4.4624,-4.4663,-4.4703,-4.4729,-4.4749,-4.4792,-4.4819,-4.483,-4.4858,-4.4901,-4.493,-4.4977,-4.5014,-4.5089,-4.511,-4.5153,-4.515,-4.5192,-4.5157,-4.5154,-4.515,-4.5147,-4.515,-4.5198,-4.5199,-4.52,-4.5201,0,-4.4713,-4.472,-4.4759,-4.4802,-4.4834,-4.4868,-4.4901,-4.4923,-4.4939,-4.4971,-4.5019,-4.5048,-4.5106,-4.5152,-4.5196,-4.5216,-4.5211,-4.5212,-4.5223,-4.522,-4.5213,-4.5217,-4.5096,-4.5208,-4.5208,-4.5207,-4.5207,-4.5206,-4.4775,-4.481,-4.4843,-4.4888,-4.4914,-4.4945,-4.498,-4.4999,-4.5039,-4.5087,-4.5091,-4.5143,-4.5177,-4.5236,-4.5258,-4.5299,-4.5287,-4.5303,-4.5307,-4.531,-4.5313,-4.5209,-4.5307,-4.5307,-4.5307,-4.5306,-4.5306,0,-4.4863,-4.4885,-4.4926,-4.4972,-4.5008,-4.5001,-4.5038,-4.5068,-4.5113,-4.5145,-4.5183,-4.5238,-4.5283,-4.5309,-4.5354,-4.5381,-4.538,-4.5393,-4.539,-4.5394,-4.5321,-4.5307,-4.5393,-4.5393,-4.5393,-4.5393,-4.5393,-4.5393,-4.4913,-4.4971,-4.4982,-4.5053,-4.5075,-4.5125,-4.5147,-4.5176,-4.5202,-4.5263,-4.5301,-4.5318,-4.5348,-4.5395,-4.5437,-4.5443,-4.5459,-4.5473,-4.5478,-4.5409,-4.54,-4.5391,-4.5377,-4.5477,-4.5477,-4.5547,-4.5548,-4.5548]},{"header":{"parameterUnit":"m.s-1","parameterCategory":1,"la1":30.2991,"la2":30.254,"lo1":-89.0895,"lo2":-89.0444,"dy":0.0017,"dx":0.0017,"nx":28,"ny":28,"refTime":"2024-04-17T03:00:00:Z","depth":0,"parameterNumber":3,"parameterNumberName":"V-component_of_WINDS"},"data":[0,0,0,0,0,0,0,0,0,0,0,0,0,0,0,0,0,0,0,0,0,0,0,0,0,0,0,0,0,0,0,0,0,0,0,0,0,0,0,0,0,0,0,0,0,0,0,0,0,0,0,0,0,0,0,0,0,0,3.9195,3.9194,0,3.9175,3.9174,3.9174,3.9159,3.9159,3.9159,3.9159,3.9134,3.9134,3.9133,0,0,0,0,0,0,0,0,0,0,0,0,0,3.9218,3.9218,3.9195,3.9194,3.9194,3.9175,3.9174,3.9174,3.9159,3.9159,3.9159,3.9159,3.9134,3.9134,3.9133,0,0,0,0,0,0,0,0,0,0,0,0,0,3.9204,3.9218,3.9195,3.9185,3.9183,3.9175,3.9174,3.9174,3.9159,3.9159,3.9159,3.9159,3.9135,3.9134,3.9133,3.9131,0,0,3.913,3.913,0,0,0,0,0,0,0,0,3.9205,3.9203,3.9186,3.9185,3.9184,3.9169,3.9173,3.9159,3.9159,3.9168,3.9159,3.9159,3.9146,3.9144,3.914,3.913,3.9129,3.913,3.913,3.913,3.9129,0,0,0,0,0,0,0,3.9206,3.9204,3.9187,3.9186,3.9185,3.918,3.9178,3.9171,3.9158,3.9167,3.9166,3.9164,3.9145,3.9141,3.914,3.9129,3.913,3.913,3.9129,3.9129,3.9118,3.9119,0,0,0,0,0,0,3.9209,3.9205,3.9187,3.9186,3.9194,3.918,3.9178,3.9174,3.9158,3.9156,3.9165,3.9164,3.9143,3.9141,3.9139,3.9137,3.913,3.9129,3.9128,3.9118,3.9118,3.9119,0,0,0,0,0,0,3.9209,3.9207,3.9188,3.9195,3.9192,3.918,3.9176,3.9174,3.917,3.9156,3.9153,3.9163,3.9143,3.914,3.9134,3.9136,3.9128,3.9128,3.9118,3.9118,3.9119,3.9133,0,0,0,0,0,0,3.921,3.9208,3.9207,3.9195,3.9192,3.9184,3.9176,3.9174,3.9169,3.9168,3.9154,3.9152,3.9142,3.9135,3.9133,3.9135,3.9127,3.9118,3.9118,3.9118,3.9132,3.9134,3.9135,0,0,0,0,0,3.9211,3.9211,3.9207,3.9205,3.9191,3.9184,3.9182,3.9173,3.9169,3.9169,3.916,3.9152,3.9136,3.9135,3.9132,3.9134,3.9117,3.9118,3.9118,3.9132,3.9134,3.9135,0,0,0,0,0,0,3.9221,3.9209,3.9205,3.9201,3.9194,3.9182,3.918,3.9175,3.9167,3.9166,3.9154,3.9151,3.9147,3.9139,3.9138,3.9132,3.9126,3.9126,3.9137,3.9139,3.914,3.9142,3.9126,0,0,0,0,0,3.9223,3.9219,3.9209,3.9206,3.9203,3.9193,3.9189,3.9183,3.9175,3.9171,3.9162,3.9153,3.9147,3.9142,3.9135,3.9132,3.9129,3.9131,3.9133,3.9134,3.9134,3.9133,3.9135,3.912,3.912,3.912,0,0,3.9226,3.922,3.9218,3.9208,3.9202,3.9198,3.919,3.9185,3.9182,3.917,3.9164,3.9158,3.9147,3.9143,3.9141,3.9137,3.9138,3.9135,3.9136,3.9135,3.9134,3.9135,3.9136,3.9121,3.912,3.912,0,0,3.9231,3.9225,3.9224,3.9219,3.921,3.9204,3.9204,3.9193,3.9189,3.9184,3.9175,3.917,3.9159,3.9153,3.9148,3.9153,3.9146,3.9151,3.9158,3.9158,3.9159,3.916,3.9162,3.9163,3.9151,3.9151,3.9151,0,3.9236,3.9231,3.9223,3.922,3.9217,3.9208,3.9206,3.9201,3.919,3.9187,3.9184,3.9171,3.9163,3.9158,3.916,3.9156,3.9156,3.9152,3.9159,3.916,3.9161,3.9163,3.9164,3.9152,3.9152,3.9152,3.9152,0,3.9238,3.9234,3.9234,3.9226,3.9223,3.922,3.9212,3.9209,3.9204,3.9198,3.9193,3.9184,3.9176,3.9175,3.9168,3.9169,3.9168,3.9162,3.9155,3.9163,3.9165,3.9166,3.9153,3.9153,3.9153,3.9153,0,0,3.9246,3.9237,3.9236,3.9234,3.9226,3.9222,3.922,3.9214,3.9212,3.9206,3.9204,3.9196,3.9191,3.9186,3.9179,3.9179,3.9185,3.9173,3.9173,3.9176,3.9187,3.9191,3.9192,3.9181,3.9181,3.9181,3.9188,0,3.9249,3.9246,3.924,3.9238,3.9236,3.9228,3.9226,3.9221,3.9216,3.9212,3.9206,3.9201,3.9195,3.9193,3.9192,3.9185,3.9187,3.9184,3.9178,3.9178,3.9181,3.9193,3.9197,3.9204,3.9189,3.9189,3.9189,0,3.9252,3.9249,3.9248,3.9242,3.924,3.9239,3.9234,3.9231,3.9225,3.9221,3.9217,3.9211,3.9208,3.9203,3.9199,3.9197,3.9195,3.9191,3.9191,3.919,3.9184,3.9192,3.9206,3.9207,3.919,3.919,3.919,0,3.9259,3.9254,3.9253,3.9251,3.9244,3.9243,3.924,3.9234,3.9232,3.9227,3.9226,3.9221,3.9218,3.9214,3.9206,3.9203,3.9204,3.9197,3.92,3.9201,3.92,3.92,3.9213,3.9199,3.9199,3.9199,3.9199,0,3.9264,3.9263,3.9257,3.9256,3.9256,3.9249,3.9249,3.9245,3.924,3.9238,3.9231,3.923,3.922,3.9217,3.9211,3.921,3.9208,3.9205,3.9203,3.9206,3.9206,3.9203,3.9203,3.9199,3.9199,3.9199,3.9199,0,3.9271,3.9266,3.9265,3.926,3.9258,3.9258,3.9253,3.9252,3.9248,3.9246,3.9245,3.9238,3.9235,3.9227,3.9221,3.9217,3.9217,3.9214,3.922,3.9219,3.9223,3.9222,3.9234,3.9236,3.922,3.922,3.9221,0,3.9273,3.9273,3.9269,3.9268,3.9266,3.9265,3.9263,3.9257,3.9256,3.9251,3.925,3.9247,3.9244,3.9239,3.9233,3.9229,3.9226,3.923,3.9225,3.9228,3.9226,3.9227,3.9227,3.9231,3.9231,3.9232,3.9232,0,3.9279,3.9278,3.9276,3.9275,3.9274,3.9272,3.9269,3.9269,3.9262,3.9261,3.9259,3.9257,3.9253,3.9249,3.9245,3.9241,3.9235,3.9234,3.9235,3.9236,3.924,3.9239,3.9223,3.9233,3.9233,3.9233,3.9233,3.9233,3.9284,3.9285,3.9283,3.9282,3.928,3.9279,3.9278,3.9275,3.9273,3.9271,3.9267,3.9266,3.9262,3.9256,3.9252,3.9251,3.9248,3.9248,3.9248,3.9249,3.925,3.9241,3.925,3.925,3.925,3.925,3.925,0,3.929,3.9289,3.9289,3.9287,3.9287,3.9284,3.9282,3.9281,3.928,3.9278,3.9276,3.9274,3.9272,3.9267,3.9264,3.9264,3.9262,3.9263,3.9263,3.9263,3.9253,3.9253,3.9266,3.9266,3.9266,3.9266,3.9266,3.9266,3.9293,3.9294,3.9293,3.9293,3.9292,3.9292,3.9291,3.929,3.9288,3.9287,3.9286,3.9284,3.928,3.9278,3.9276,3.9274,3.9273,3.9276,3.9274,3.9265,3.9263,3.9262,3.9262,3.9276,3.9276,3.9284,3.9284,3.9284]}]]